| time (UTC) | temp C | wind direction | speed KPH | gust KPH | rain 1hr cm | rain 24hr cm | rain mn cm | humidity % | barometer mb |
| 20260507154021 | 14 | 266 | 22.5 | 30.6 | 0.00 | 0.20 | 0.00 | 55 | 1017.0 |
| 20260507153525 | 14 | 244 | 24.1 | 30.6 | 0.00 | 0.20 | 0.00 | 56 | 1016.9 |
| 20260507153041 | 13 | 254 | 22.5 | 32.2 | 0.00 | 0.20 | 0.00 | 57 | 1017.0 |
| 20260507152525 | 13 | 256 | 20.9 | 32.2 | 0.00 | 0.20 | 0.00 | 61 | 1017.0 |
| 20260507152031 | 13 | 255 | 17.7 | 27.4 | 0.00 | 0.20 | 0.00 | 64 | 1016.7 |
| 20260507151542 | 12 | 254 | 19.3 | 29.0 | 0.00 | 0.20 | 0.00 | 65 | 1016.8 |
| 20260507151023 | 12 | 257 | 20.9 | 29.0 | 0.00 | 0.20 | 0.00 | 65 | 1016.9 |
| 20260507150523 | 12 | 250 | 20.9 | 29.0 | 0.00 | 0.20 | 0.00 | 66 | 1016.8 |
| 20260507150043 | 11 | 257 | 22.5 | 30.6 | 0.00 | 0.20 | 0.00 | 68 | 1017.0 |
| 20260507145520 | 11 | 251 | 20.9 | 30.6 | 0.00 | 0.20 | 0.00 | 70 | 1017.0 |
| 20260507145025 | 10 | 254 | 19.3 | 29.0 | 0.00 | 0.20 | 0.00 | 73 | 1017.0 |
| 20260507144541 | 10 | 256 | 17.7 | 32.2 | 0.00 | 0.20 | 0.00 | 74 | 1017.0 |
| 20260507144021 | 10 | 272 | 19.3 | 32.2 | 0.00 | 0.20 | 0.00 | 75 | 1017.3 |
| 20260507143522 | 9 | 250 | 19.3 | 32.2 | 0.00 | 0.20 | 0.00 | 75 | 1017.1 |
| 20260507143054 | 9 | 246 | 16.1 | 27.4 | 0.00 | 0.20 | 0.00 | 77 | 1017.1 |
| 20260507142522 | 8 | 242 | 17.7 | 24.1 | 0.00 | 0.20 | 0.00 | 78 | 1017.2 |
| 20260507142027 | 8 | 244 | 17.7 | 25.7 | 0.00 | 0.20 | 0.00 | 79 | 1017.4 |
| 20260507141550 | 7 | 235 | 17.7 | 25.7 | 0.00 | 0.20 | 0.00 | 80 | 1017.5 |
| 20260507141020 | 7 | 219 | 17.7 | 24.1 | 0.00 | 0.20 | 0.00 | 81 | 1017.6 |
| 20260507140525 | 7 | 210 | 16.1 | 24.1 | 0.00 | 0.20 | 0.00 | 82 | 1017.6 |
| 20260507140039 | 7 | 223 | 12.9 | 24.1 | 0.00 | 0.20 | 0.00 | 84 | 1017.6 |
| 20260507135522 | 6 | 232 | 17.7 | 24.1 | 0.00 | 0.20 | 0.00 | 84 | 1017.5 |
| 20260507135022 | 6 | 250 | 16.1 | 24.1 | 0.00 | 0.20 | 0.00 | 85 | 1017.7 |
| 20260507134546 | 6 | 241 | 14.5 | 25.7 | 0.00 | 0.20 | 0.00 | 85 | 1017.6 |
| 20260507134021 | 5 | 240 | 17.7 | 25.7 | 0.00 | 0.20 | 0.00 | 86 | 1017.6 |
| 20260507133521 | 5 | 261 | 17.7 | 25.7 | 0.00 | 0.20 | 0.00 | 86 | 1017.8 |
| 20260507133118 | 5 | 254 | 17.7 | 25.7 | 0.00 | 0.20 | 0.00 | 87 | 1017.8 |
| 20260507132529 | 5 | 241 | 14.5 | 22.5 | 0.00 | 0.20 | 0.00 | 87 | 1018.0 |
| 20260507132020 | 4 | 268 | 12.9 | 22.5 | 0.00 | 0.20 | 0.00 | 88 | 1017.9 |
| 20260507131545 | 4 | 256 | 16.1 | 25.7 | 0.00 | 0.20 | 0.00 | 88 | 1017.8 |
| 20260507131022 | 3 | 246 | 16.1 | 25.7 | 0.00 | 0.20 | 0.00 | 88 | 1017.7 |
| 20260507130521 | 3 | 257 | 16.1 | 24.1 | 0.00 | 0.20 | 0.00 | 88 | 1017.7 |
| 20260507130053 | 3 | 234 | 14.5 | 25.7 | 0.00 | 0.20 | 0.00 | 88 | 1017.7 |
| 20260507125522 | 3 | 252 | 16.1 | 25.7 | 0.00 | 0.23 | 0.00 | 88 | 1018.0 |
| 20260507125021 | 3 | 252 | 14.5 | 24.1 | 0.00 | 0.23 | 0.00 | 89 | 1017.9 |
| 20260507124547 | 2 | 247 | 11.3 | 17.7 | 0.00 | 0.23 | 0.00 | 89 | 1018.0 |
| 20260507124025 | 2 | 256 | 9.7 | 14.5 | 0.00 | 0.23 | 0.00 | 89 | 1018.0 |
| 20260507123526 | 2 | 234 | 6.4 | 16.1 | 0.00 | 0.23 | 0.00 | 89 | 1017.9 |
| 20260507123044 | 2 | 230 | 8.0 | 16.1 | 0.00 | 0.23 | 0.00 | 89 | 1018.0 |
| 20260507122521 | 2 | 230 | 8.0 | 16.1 | 0.00 | 0.23 | 0.00 | 89 | 1018.0 |
| 20260507122022 | 1 | 230 | 8.0 | 14.5 | 0.00 | 0.23 | 0.00 | 89 | 1018.0 |
| 20260507121544 | 1 | 238 | 6.4 | 12.9 | 0.00 | 0.23 | 0.00 | 89 | 1018.0 |
| 20260507121022 | 1 | 240 | 4.8 | 11.3 | 0.00 | 0.23 | 0.00 | 89 | 1018.1 |
| 20260507120521 | 1 | 238 | 4.8 | 12.9 | 0.00 | 0.23 | 0.00 | 88 | 1018.2 |
| 20260507120041 | 1 | 239 | 6.4 | 12.9 | 0.00 | 0.23 | 0.00 | 88 | 1018.3 |
| 20260507115521 | 1 | 240 | 6.4 | 16.1 | 0.00 | 0.23 | 0.00 | 88 | 1018.1 |
| 20260507115022 | 1 | 238 | 8.0 | 16.1 | 0.00 | 0.23 | 0.00 | 89 | 1018.2 |
| 20260507114555 | 1 | 244 | 8.0 | 14.5 | 0.00 | 0.23 | 0.00 | 88 | 1018.0 |
| 20260507114021 | 1 | 246 | 9.7 | 16.1 | 0.00 | 0.23 | 0.00 | 89 | 1018.2 |
| 20260507113523 | 1 | 257 | 9.7 | 16.1 | 0.00 | 0.23 | 0.00 | 88 | 1018.3 |
| 20260507113041 | 1 | 256 | 9.7 | 16.1 | 0.00 | 0.23 | 0.00 | 89 | 1018.4 |
| 20260507112522 | 1 | 253 | 6.4 | 12.9 | 0.00 | 0.23 | 0.00 | 88 | 1018.4 |
| 20260507112025 | 1 | 247 | 6.4 | 12.9 | 0.00 | 0.23 | 0.00 | 88 | 1018.3 |
| 20260507111539 | 1 | 248 | 8.0 | 12.9 | 0.00 | 0.23 | 0.00 | 89 | 1018.3 |
| 20260507111021 | 1 | 271 | 6.4 | 12.9 | 0.00 | 0.23 | 0.00 | 89 | 1018.4 |
| 20260507110521 | 0 | 250 | 8.0 | 12.9 | 0.00 | 0.23 | 0.00 | 89 | 1018.4 |
| 20260507110042 | 0 | 234 | 6.4 | 11.3 | 0.00 | 0.23 | 0.00 | 88 | 1018.6 |
| 20260507105521 | 0 | 229 | 4.8 | 9.7 | 0.00 | 0.23 | 0.00 | 88 | 1018.7 |
| 20260507105021 | 0 | 228 | 4.8 | 8.0 | 0.00 | 0.23 | 0.00 | 88 | 1018.6 |
| 20260507104541 | 0 | 228 | 4.8 | 8.0 | 0.00 | 0.23 | 0.00 | 88 | 1018.5 |
| 20260507104021 | 0 | 228 | 4.8 | 6.4 | 0.00 | 0.23 | 0.00 | 88 | 1018.4 |
| 20260507103522 | 0 | 228 | 3.2 | 6.4 | 0.00 | 0.23 | 0.00 | 88 | 1018.6 |
| 20260507103048 | 0 | 228 | 3.2 | 6.4 | 0.00 | 0.23 | 0.00 | 88 | 1018.5 |
| 20260507102520 | 0 | 228 | 3.2 | 6.4 | 0.00 | 0.23 | 0.00 | 88 | 1018.7 |
| 20260507102022 | 0 | 228 | 4.8 | 6.4 | 0.00 | 0.23 | 0.00 | 88 | 1018.6 |
| 20260507101540 | 0 | 228 | 4.8 | 6.4 | 0.00 | 0.23 | 0.00 | 88 | 1018.6 |
| 20260507101023 | 0 | 228 | 3.2 | 4.8 | 0.00 | 0.23 | 0.00 | 88 | 1018.8 |
| 20260507100522 | 0 | 228 | 3.2 | 4.8 | 0.00 | 0.23 | 0.00 | 88 | 1018.9 |
| 20260507100039 | 1 | 228 | 3.2 | 6.4 | 0.00 | 0.23 | 0.00 | 88 | 1019.0 |
| 20260507095524 | 1 | 228 | 3.2 | 6.4 | 0.00 | 0.25 | 0.00 | 88 | 1019.2 |
| 20260507095022 | 1 | 228 | 3.2 | 6.4 | 0.00 | 0.25 | 0.00 | 88 | 1019.1 |
| 20260507094554 | 1 | 228 | 3.2 | 6.4 | 0.00 | 0.25 | 0.00 | 87 | 1019.1 |
| 20260507094025 | 1 | 228 | 3.2 | 8.0 | 0.00 | 0.25 | 0.00 | 88 | 1019.1 |
| 20260507093521 | 1 | 228 | 3.2 | 8.0 | 0.00 | 0.25 | 0.00 | 88 | 1019.1 |
| 20260507093041 | 1 | 228 | 4.8 | 8.0 | 0.00 | 0.25 | 0.00 | 88 | 1019.2 |
| 20260507092521 | 1 | 228 | 4.8 | 8.0 | 0.00 | 0.25 | 0.00 | 88 | 1019.3 |
| 20260507092021 | 1 | 228 | 4.8 | 6.4 | 0.00 | 0.25 | 0.00 | 88 | 1019.2 |
| 20260507091540 | 1 | 228 | 4.8 | 6.4 | 0.00 | 0.25 | 0.00 | 88 | 1019.4 |
| 20260507091020 | 1 | 227 | 4.8 | 6.4 | 0.00 | 0.25 | 0.00 | 88 | 1019.2 |
| 20260507090522 | 1 | 227 | 4.8 | 8.0 | 0.00 | 0.25 | 0.00 | 88 | 1019.3 |
| 20260507090043 | 1 | 227 | 4.8 | 9.7 | 0.00 | 0.25 | 0.00 | 88 | 1019.3 |
| 20260507085522 | 2 | 227 | 4.8 | 9.7 | 0.00 | 0.25 | 0.00 | 88 | 1019.2 |
| 20260507085024 | 2 | 228 | 4.8 | 11.3 | 0.00 | 0.25 | 0.00 | 88 | 1019.5 |
| 20260507084544 | 2 | 228 | 6.4 | 11.3 | 0.00 | 0.25 | 0.00 | 88 | 1019.6 |
| 20260507084026 | 2 | 226 | 6.4 | 12.9 | 0.00 | 0.25 | 0.00 | 88 | 1019.6 |
| 20260507083522 | 2 | 227 | 6.4 | 12.9 | 0.00 | 0.25 | 0.00 | 88 | 1019.6 |
| 20260507083036 | 1 | 232 | 6.4 | 11.3 | 0.00 | 0.25 | 0.00 | 87 | 1019.7 |
| 20260507082522 | 2 | 230 | 6.4 | 11.3 | 0.00 | 0.25 | 0.00 | 87 | 1019.8 |
| 20260507082021 | 2 | 235 | 6.4 | 11.3 | 0.00 | 0.25 | 0.00 | 87 | 1019.9 |
| 20260507081542 | 2 | 250 | 4.8 | 8.0 | 0.00 | 0.25 | 0.00 | 87 | 1019.9 |
| 20260507081021 | 2 | 253 | 4.8 | 8.0 | 0.00 | 0.25 | 0.00 | 87 | 1019.9 |
| 20260507080519 | 2 | 254 | 3.2 | 6.4 | 0.00 | 0.25 | 0.00 | 87 | 1020.1 |
| 20260507080046 | 2 | 254 | 4.8 | 9.7 | 0.00 | 0.25 | 0.00 | 87 | 1020.0 |
| 20260507075519 | 2 | 255 | 4.8 | 11.3 | 0.00 | 0.28 | 0.00 | 87 | 1020.1 |
| 20260507075021 | 2 | 256 | 4.8 | 11.3 | 0.00 | 0.28 | 0.00 | 87 | 1020.2 |
| 20260507074627 | 2 | 257 | 6.4 | 11.3 | 0.00 | 0.28 | 0.00 | 87 | 1020.4 |
| 20260507074021 | 2 | 271 | 8.0 | 11.3 | 0.00 | 0.28 | 0.00 | 87 | 1020.3 |
| 20260507073525 | 2 | 254 | 6.4 | 11.3 | 0.00 | 0.28 | 0.00 | 87 | 1020.3 |
| 20260507073036 | 2 | 258 | 6.4 | 11.3 | 0.00 | 0.28 | 0.00 | 87 | 1020.3 |
| 20260507072522 | 2 | 259 | 4.8 | 9.7 | 0.00 | 0.28 | 0.00 | 87 | 1020.4 |
| 20260507072021 | 3 | 259 | 4.8 | 9.7 | 0.00 | 0.28 | 0.00 | 87 | 1020.5 |
| 20260507071546 | 3 | 259 | 3.2 | 9.7 | 0.00 | 0.28 | 0.00 | 87 | 1020.4 |
| 20260507071022 | 3 | 259 | 4.8 | 14.5 | 0.00 | 0.28 | 0.00 | 86 | 1020.3 |
| 20260507070522 | 3 | 260 | 6.4 | 14.5 | 0.00 | 0.28 | 0.00 | 86 | 1020.5 |
| 20260507070054 | 3 | 263 | 8.0 | 14.5 | 0.00 | 0.28 | 0.00 | 87 | 1020.6 |
| 20260507065520 | 3 | 265 | 6.4 | 11.3 | 0.00 | 0.28 | 0.00 | 87 | 1020.7 |
| 20260507065022 | 3 | 263 | 4.8 | 9.7 | 0.00 | 0.28 | 0.00 | 86 | 1020.8 |
| 20260507064547 | 3 | 263 | 4.8 | 6.4 | 0.00 | 0.28 | 0.00 | 86 | 1020.8 |
| 20260507064021 | 4 | 263 | 4.8 | 6.4 | 0.00 | 0.28 | 0.00 | 86 | 1020.7 |
| 20260507063522 | 3 | 263 | 3.2 | 6.4 | 0.00 | 0.28 | 0.00 | 86 | 1021.0 |
| 20260507063041 | 3 | 263 | 3.2 | 6.4 | 0.00 | 0.28 | 0.00 | 86 | 1020.9 |
| 20260507062518 | 4 | 263 | 3.2 | 9.7 | 0.00 | 0.28 | 0.00 | 86 | 1021.1 |
| 20260507062022 | 4 | 263 | 4.8 | 9.7 | 0.00 | 0.28 | 0.00 | 86 | 1021.2 |
| 20260507061538 | 4 | 263 | 6.4 | 9.7 | 0.00 | 0.28 | 0.00 | 86 | 1021.1 |
| 20260507061025 | 5 | 264 | 4.8 | 6.4 | 0.00 | 0.28 | 0.00 | 86 | 1021.3 |
| 20260507060521 | 5 | 264 | 3.2 | 4.8 | 0.00 | 0.28 | 0.00 | 86 | 1021.2 |
| 20260507060035 | 5 | 264 | 3.2 | 6.4 | 0.00 | 0.28 | 0.00 | 86 | 1021.3 |
| 20260507055522 | 5 | 264 | 3.2 | 6.4 | 0.00 | 0.28 | 0.00 | 86 | 1021.4 |
| 20260507055022 | 5 | 264 | 3.2 | 9.7 | 0.00 | 0.28 | 0.00 | 86 | 1021.4 |
| 20260507054541 | 5 | 264 | 4.8 | 9.7 | 0.00 | 0.28 | 0.00 | 86 | 1021.6 |
| 20260507054025 | 5 | 264 | 4.8 | 9.7 | 0.00 | 0.28 | 0.00 | 86 | 1021.6 |
| 20260507053522 | 5 | 264 | 4.8 | 6.4 | 0.00 | 0.28 | 0.00 | 86 | 1021.3 |
| 20260507053041 | 5 | 265 | 4.8 | 6.4 | 0.00 | 0.28 | 0.00 | 85 | 1021.3 |
| 20260507052521 | 5 | 265 | 3.2 | 4.8 | 0.00 | 0.28 | 0.00 | 85 | 1021.4 |
| 20260507052022 | 5 | 265 | 3.2 | 4.8 | 0.00 | 0.28 | 0.00 | 85 | 1021.0 |
| 20260507051542 | 6 | 265 | 3.2 | 4.8 | 0.00 | 0.28 | 0.00 | 85 | 1021.2 |
| 20260507051023 | 6 | 265 | 3.2 | 4.8 | 0.00 | 0.28 | 0.00 | 85 | 1021.2 |
| 20260507050518 | 6 | 265 | 3.2 | 4.8 | 0.00 | 0.28 | 0.00 | 84 | 1021.1 |
| 20260507050050 | 6 | 265 | 3.2 | 4.8 | 0.00 | 0.28 | 0.00 | 84 | 1021.2 |
| 20260507045522 | 6 | 265 | 1.6 | 6.4 | 0.00 | 0.28 | 0.28 | 84 | 1021.3 |
| 20260507045021 | 6 | 265 | 3.2 | 6.4 | 0.00 | 0.28 | 0.28 | 84 | 1021.4 |
| 20260507044542 | 6 | 265 | 1.6 | 6.4 | 0.00 | 0.28 | 0.28 | 84 | 1021.4 |
| 20260507044022 | 6 | 265 | 1.6 | 9.7 | 0.00 | 0.28 | 0.28 | 84 | 1021.5 |
| 20260507043522 | 6 | 265 | 4.8 | 9.7 | 0.00 | 0.28 | 0.28 | 84 | 1021.4 |
| 20260507043042 | 7 | 266 | 3.2 | 9.7 | 0.00 | 0.28 | 0.28 | 84 | 1021.5 |
| 20260507042521 | 7 | 267 | 3.2 | 6.4 | 0.00 | 0.28 | 0.28 | 84 | 1021.6 |
| 20260507042024 | 7 | 267 | 3.2 | 9.7 | 0.00 | 0.28 | 0.28 | 84 | 1021.7 |
| 20260507041545 | 7 | 267 | 4.8 | 9.7 | 0.00 | 0.28 | 0.28 | 84 | 1021.6 |
| 20260507041024 | 7 | 269 | 4.8 | 9.7 | 0.00 | 0.28 | 0.28 | 84 | 1021.8 |
| 20260507040523 | 7 | 272 | 4.8 | 9.7 | 0.00 | 0.28 | 0.28 | 84 | 1021.6 |
| 20260507040045 | 7 | 273 | 6.4 | 9.7 | 0.00 | 0.28 | 0.28 | 84 | 1021.5 |
| 20260507035522 | 7 | 274 | 3.2 | 11.3 | 0.00 | 0.28 | 0.28 | 84 | 1021.6 |
| 20260507035021 | 7 | 274 | 4.8 | 11.3 | 0.00 | 0.28 | 0.28 | 83 | 1021.5 |
| 20260507034542 | 7 | 274 | 6.4 | 12.9 | 0.00 | 0.28 | 0.28 | 83 | 1021.4 |
| 20260507034025 | 7 | 273 | 6.4 | 14.5 | 0.00 | 0.28 | 0.28 | 83 | 1021.6 |
| 20260507033522 | 7 | 275 | 8.0 | 14.5 | 0.00 | 0.28 | 0.28 | 83 | 1021.6 |
| 20260507033045 | 7 | 281 | 6.4 | 11.3 | 0.00 | 0.28 | 0.28 | 83 | 1021.5 |
| 20260507032521 | 7 | 286 | 6.4 | 11.3 | 0.00 | 0.28 | 0.28 | 83 | 1021.5 |
| 20260507032024 | 7 | 287 | 4.8 | 12.9 | 0.00 | 0.28 | 0.28 | 83 | 1021.2 |
| 20260507031554 | 7 | 289 | 6.4 | 12.9 | 0.00 | 0.28 | 0.28 | 83 | 1021.3 |
| 20260507031022 | 7 | 285 | 9.7 | 12.9 | 0.00 | 0.28 | 0.28 | 82 | 1021.2 |
| 20260507030522 | 7 | 279 | 8.0 | 12.9 | 0.00 | 0.28 | 0.28 | 82 | 1021.4 |
| 20260507030104 | 7 | 278 | 8.0 | 14.5 | 0.00 | 0.28 | 0.28 | 82 | 1021.3 |
| 20260507025521 | 7 | 290 | 8.0 | 14.5 | 0.00 | 0.28 | 0.28 | 82 | 1021.0 |
| 20260507025023 | 7 | 280 | 8.0 | 12.9 | 0.00 | 0.28 | 0.28 | 82 | 1021.1 |
| 20260507024601 | 7 | 284 | 6.4 | 11.3 | 0.00 | 0.28 | 0.28 | 82 | 1020.9 |
| 20260507024018 | 7 | 292 | 4.8 | 11.3 | 0.00 | 0.28 | 0.28 | 82 | 1020.8 |
| 20260507023519 | 7 | 15 | 3.2 | 6.4 | 0.00 | 0.28 | 0.28 | 82 | 1020.6 |
| 20260507023041 | 7 | 22 | 1.6 | 4.8 | 0.00 | 0.28 | 0.28 | 81 | 1020.5 |
| 20260507022520 | 7 | 22 | 1.6 | 4.8 | 0.00 | 0.28 | 0.28 | 81 | 1020.5 |
| 20260507022019 | 7 | 22 | 1.6 | 4.8 | 0.00 | 0.28 | 0.28 | 81 | 1020.4 |
| 20260507021552 | 7 | 22 | 1.6 | 4.8 | 0.00 | 0.28 | 0.28 | 80 | 1020.3 |
| 20260507021019 | 7 | 22 | 0.0 | 3.2 | 0.00 | 0.28 | 0.28 | 80 | 1020.2 |
| 20260507020520 | 7 | 22 | 1.6 | 3.2 | 0.00 | 0.28 | 0.28 | 80 | 1020.1 |
| 20260507020047 | 7 | 22 | 0.0 | 1.6 | 0.00 | 0.28 | 0.28 | 80 | 1020.0 |
| 20260507015521 | 7 | 0 | 0.0 | 0.0 | 0.00 | 0.28 | 0.28 | 80 | 1020.0 |
| 20260507015022 | 7 | 0 | 0.0 | 1.6 | 0.00 | 0.28 | 0.28 | 79 | 1020.1 |
| 20260507014552 | 7 | 0 | 0.0 | 3.2 | 0.00 | 0.28 | 0.28 | 79 | 1020.0 |
| 20260507014019 | 7 | 0 | 0.0 | 3.2 | 0.00 | 0.28 | 0.28 | 79 | 1020.2 |
| 20260507013521 | 7 | 22 | 1.6 | 6.4 | 0.00 | 0.28 | 0.28 | 79 | 1020.3 |
| 20260507013043 | 7 | 22 | 1.6 | 8.0 | 0.00 | 0.28 | 0.28 | 78 | 1020.2 |
| 20260507012521 | 8 | 22 | 3.2 | 8.0 | 0.00 | 0.28 | 0.28 | 78 | 1020.2 |
| 20260507012021 | 8 | 22 | 4.8 | 8.0 | 0.00 | 0.28 | 0.28 | 77 | 1020.4 |
| 20260507011547 | 8 | 38 | 3.2 | 6.4 | 0.00 | 0.28 | 0.28 | 77 | 1020.3 |
| 20260507011020 | 8 | 53 | 3.2 | 4.8 | 0.00 | 0.28 | 0.28 | 76 | 1020.3 |
| 20260507010519 | 8 | 54 | 1.6 | 6.4 | 0.00 | 0.28 | 0.28 | 76 | 1020.2 |
| 20260507010042 | 8 | 54 | 3.2 | 6.4 | 0.00 | 0.28 | 0.28 | 75 | 1020.0 |
| 20260507005519 | 8 | 54 | 3.2 | 6.4 | 0.00 | 0.28 | 0.28 | 75 | 1019.9 |
| 20260507005023 | 8 | 54 | 3.2 | 6.4 | 0.00 | 0.28 | 0.28 | 75 | 1019.7 |
| 20260507004543 | 8 | 54 | 3.2 | 6.4 | 0.00 | 0.28 | 0.28 | 74 | 1019.7 |
| 20260507004022 | 8 | 54 | 4.8 | 8.0 | 0.00 | 0.28 | 0.28 | 74 | 1019.6 |
| 20260507003522 | 8 | 54 | 3.2 | 8.0 | 0.00 | 0.28 | 0.28 | 74 | 1019.4 |
| 20260507003042 | 8 | 55 | 4.8 | 8.0 | 0.00 | 0.28 | 0.28 | 74 | 1019.3 |
| 20260507002521 | 8 | 55 | 4.8 | 8.0 | 0.00 | 0.28 | 0.28 | 74 | 1019.5 |
| 20260507002022 | 8 | 55 | 3.2 | 8.0 | 0.00 | 0.28 | 0.28 | 74 | 1019.7 |
| 20260507001541 | 8 | 55 | 4.8 | 8.0 | 0.00 | 0.28 | 0.28 | 74 | 1019.7 |
| 20260507001021 | 8 | 55 | 4.8 | 8.0 | 0.00 | 0.28 | 0.28 | 74 | 1019.6 |
| 20260507000521 | 8 | 55 | 4.8 | 9.7 | 0.00 | 0.28 | 0.28 | 74 | 1019.7 |
| 20260507000043 | 8 | 54 | 6.4 | 9.7 | 0.00 | 0.28 | 0.28 | 74 | 1019.9 |
| 20260506235522 | 8 | 53 | 4.8 | 12.9 | 0.00 | 0.28 | 0.28 | 74 | 1020.0 |
| 20260506235018 | 8 | 51 | 4.8 | 12.9 | 0.00 | 0.28 | 0.28 | 74 | 1019.9 |
| 20260506234545 | 8 | 42 | 4.8 | 12.9 | 0.00 | 0.28 | 0.28 | 74 | 1020.0 |
| 20260506234022 | 8 | 69 | 6.4 | 14.5 | 0.00 | 0.28 | 0.28 | 73 | 1019.7 |
| 20260506233522 | 8 | 55 | 8.0 | 14.5 | 0.00 | 0.28 | 0.28 | 73 | 1019.3 |
| 20260506233049 | 8 | 53 | 8.0 | 14.5 | 0.00 | 0.28 | 0.28 | 73 | 1019.5 |
| 20260506232521 | 8 | 58 | 6.4 | 12.9 | 0.00 | 0.28 | 0.28 | 74 | 1019.5 |
| 20260506232021 | 8 | 76 | 6.4 | 9.7 | 0.00 | 0.28 | 0.28 | 73 | 1019.7 |
| 20260506231546 | 8 | 71 | 1.6 | 12.9 | 0.00 | 0.28 | 0.28 | 73 | 1019.7 |
| 20260506231022 | 8 | 71 | 3.2 | 12.9 | 0.00 | 0.28 | 0.28 | 73 | 1019.7 |
| 20260506230521 | 8 | 76 | 8.0 | 12.9 | 0.00 | 0.28 | 0.28 | 73 | 1019.3 |
| 20260506230046 | 8 | 104 | 4.8 | 11.3 | 0.00 | 0.28 | 0.28 | 74 | 1019.3 |
| 20260506225525 | 8 | 105 | 4.8 | 11.3 | 0.00 | 0.28 | 0.28 | 74 | 1019.4 |
| 20260506225025 | 8 | 105 | 4.8 | 11.3 | 0.00 | 0.28 | 0.28 | 74 | 1019.3 |
| 20260506224541 | 8 | 106 | 3.2 | 9.7 | 0.00 | 0.28 | 0.28 | 74 | 1019.5 |
| 20260506224018 | 8 | 0 | 1.6 | 11.3 | 0.00 | 0.28 | 0.28 | 74 | 1019.6 |
| 20260506223519 | 8 | 0 | 1.6 | 11.3 | 0.00 | 0.28 | 0.28 | 75 | 1019.5 |
| 20260506223038 | 8 | 113 | 1.6 | 6.4 | 0.00 | 0.28 | 0.28 | 76 | 1019.4 |
| 20260506222519 | 8 | 113 | 0.0 | 12.9 | 0.00 | 0.28 | 0.28 | 76 | 1019.3 |
| 20260506222019 | 8 | 113 | 4.8 | 12.9 | 0.00 | 0.28 | 0.28 | 76 | 1019.5 |
| 20260506221535 | 8 | 118 | 4.8 | 11.3 | 0.00 | 0.28 | 0.28 | 77 | 1019.6 |
| 20260506221018 | 8 | 117 | 4.8 | 16.1 | 0.00 | 0.28 | 0.28 | 77 | 1019.6 |
| 20260506220522 | 8 | 117 | 8.0 | 16.1 | 0.00 | 0.28 | 0.28 | 77 | 1019.8 |
| 20260506220052 | 8 | 111 | 9.7 | 16.1 | 0.00 | 0.28 | 0.28 | 77 | 1019.7 |
| 20260506215522 | 8 | 126 | 8.0 | 16.1 | 0.00 | 0.28 | 0.28 | 77 | 1019.7 |
| 20260506215023 | 8 | 117 | 6.4 | 14.5 | 0.00 | 0.28 | 0.28 | 77 | 1019.6 |
| 20260506214546 | 8 | 116 | 4.8 | 12.9 | 0.00 | 0.28 | 0.28 | 78 | 1019.7 |
| 20260506214025 | 8 | 113 | 3.2 | 12.9 | 0.00 | 0.28 | 0.28 | 79 | 1019.6 |
| 20260506213526 | 8 | 112 | 6.4 | 12.9 | 0.00 | 0.28 | 0.28 | 80 | 1019.6 |
| 20260506213043 | 8 | 108 | 6.4 | 12.9 | 0.00 | 0.28 | 0.28 | 80 | 1019.6 |
| 20260506212523 | 7 | 84 | 4.8 | 14.5 | 0.00 | 0.28 | 0.28 | 81 | 1019.7 |
| 20260506212026 | 7 | 82 | 1.6 | 14.5 | 0.00 | 0.28 | 0.28 | 82 | 1019.8 |
| 20260506211541 | 7 | 65 | 3.2 | 12.9 | 0.00 | 0.28 | 0.28 | 82 | 1019.8 |
| 20260506211021 | 7 | 70 | 4.8 | 12.9 | 0.00 | 0.28 | 0.28 | 82 | 1019.9 |
| 20260506210523 | 7 | 86 | 3.2 | 12.9 | 0.00 | 0.28 | 0.28 | 82 | 1019.9 |
| 20260506210041 | 7 | 86 | 6.4 | 16.1 | 0.00 | 0.28 | 0.28 | 82 | 1019.9 |
| 20260506205525 | 7 | 79 | 8.0 | 16.1 | 0.00 | 0.28 | 0.28 | 83 | 1019.9 |
| 20260506205023 | 7 | 77 | 11.3 | 16.1 | 0.00 | 0.28 | 0.28 | 83 | 1019.7 |
| 20260506204544 | 7 | 80 | 8.0 | 20.9 | 0.00 | 0.28 | 0.28 | 83 | 1019.9 |
| 20260506204021 | 7 | 94 | 11.3 | 20.9 | 0.00 | 0.28 | 0.28 | 84 | 1019.9 |
| 20260506203525 | 7 | 90 | 9.7 | 14.5 | 0.00 | 0.28 | 0.28 | 84 | 1019.7 |
| 20260506203043 | 7 | 98 | 9.7 | 16.1 | 0.00 | 0.28 | 0.28 | 84 | 1019.9 |
| 20260506202521 | 6 | 88 | 8.0 | 16.1 | 0.00 | 0.28 | 0.28 | 85 | 1020.0 |
| 20260506202024 | 6 | 92 | 9.7 | 16.1 | 0.00 | 0.28 | 0.28 | 85 | 1019.8 |
| 20260506201542 | 6 | 101 | 6.4 | 16.1 | 0.00 | 0.28 | 0.28 | 85 | 1020.0 |
| 20260506201021 | 6 | 96 | 8.0 | 16.1 | 0.00 | 0.28 | 0.28 | 85 | 1020.0 |
| 20260506200522 | 6 | 81 | 6.4 | 16.1 | 0.00 | 0.28 | 0.28 | 85 | 1020.0 |
| 20260506200042 | 6 | 102 | 6.4 | 12.9 | 0.00 | 0.28 | 0.28 | 85 | 1020.0 |
| 20260506195525 | 6 | 101 | 3.2 | 12.9 | 0.00 | 0.28 | 0.28 | 86 | 1019.9 |
| 20260506195023 | 6 | 101 | 6.4 | 12.9 | 0.00 | 0.28 | 0.28 | 86 | 1019.9 |
| 20260506194539 | 6 | 111 | 6.4 | 16.1 | 0.00 | 0.28 | 0.28 | 86 | 1020.1 |
| 20260506194023 | 6 | 107 | 8.0 | 16.1 | 0.00 | 0.28 | 0.28 | 87 | 1019.9 |
| 20260506193520 | 6 | 95 | 9.7 | 16.1 | 0.00 | 0.28 | 0.28 | 87 | 1019.9 |
| 20260506193045 | 6 | 86 | 9.7 | 16.1 | 0.00 | 0.28 | 0.28 | 87 | 1019.9 |
| 20260506192523 | 6 | 98 | 9.7 | 12.9 | 0.00 | 0.28 | 0.28 | 87 | 1020.1 |
| 20260506192026 | 6 | 59 | 8.0 | 20.9 | 0.00 | 0.28 | 0.28 | 87 | 1020.0 |
| 20260506191542 | 6 | 70 | 9.7 | 22.5 | 0.03 | 0.28 | 0.28 | 87 | 1020.0 |
| 20260506191021 | 6 | 68 | 14.5 | 22.5 | 0.03 | 0.28 | 0.28 | 87 | 1019.9 |
| 20260506190523 | 6 | 52 | 9.7 | 16.1 | 0.03 | 0.28 | 0.28 | 87 | 1019.9 |
| 20260506190042 | 6 | 72 | 8.0 | 17.7 | 0.03 | 0.28 | 0.28 | 87 | 1020.1 |
| 20260506185521 | 6 | 110 | 6.4 | 17.7 | 0.03 | 0.28 | 0.28 | 87 | 1019.9 |
| 20260506185021 | 6 | 95 | 11.3 | 17.7 | 0.03 | 0.28 | 0.28 | 88 | 1020.1 |
| 20260506184547 | 5 | 98 | 9.7 | 16.1 | 0.03 | 0.28 | 0.28 | 88 | 1020.3 |
| 20260506184025 | 5 | 88 | 8.0 | 16.1 | 0.05 | 0.28 | 0.28 | 88 | 1020.4 |
| 20260506183522 | 5 | 71 | 9.7 | 14.5 | 0.05 | 0.28 | 0.28 | 88 | 1020.4 |
| 20260506183035 | 5 | 90 | 8.0 | 12.9 | 0.05 | 0.28 | 0.28 | 88 | 1020.5 |
| 20260506182520 | 5 | 80 | 8.0 | 19.3 | 0.08 | 0.28 | 0.28 | 89 | 1020.5 |
| 20260506182021 | 5 | 65 | 11.3 | 19.3 | 0.08 | 0.28 | 0.28 | 88 | 1020.4 |
| 20260506181541 | 5 | 53 | 11.3 | 19.3 | 0.05 | 0.25 | 0.25 | 89 | 1020.5 |
| 20260506181022 | 5 | 74 | 11.3 | 19.3 | 0.08 | 0.25 | 0.25 | 89 | 1020.5 |
| 20260506180522 | 5 | 72 | 11.3 | 19.3 | 0.08 | 0.25 | 0.25 | 88 | 1020.5 |
| 20260506180046 | 5 | 59 | 9.7 | 17.7 | 0.10 | 0.25 | 0.25 | 88 | 1020.6 |
| 20260506175521 | 5 | 71 | 11.3 | 17.7 | 0.10 | 0.25 | 0.25 | 88 | 1020.6 |
| 20260506175023 | 5 | 78 | 12.9 | 17.7 | 0.10 | 0.25 | 0.25 | 88 | 1020.8 |
| 20260506174540 | 5 | 65 | 11.3 | 17.7 | 0.10 | 0.25 | 0.25 | 88 | 1020.7 |
| 20260506174021 | 5 | 71 | 9.7 | 17.7 | 0.10 | 0.23 | 0.23 | 89 | 1020.6 |
| 20260506173521 | 5 | 68 | 12.9 | 17.7 | 0.10 | 0.23 | 0.23 | 88 | 1020.6 |
| 20260506173109 | 5 | 47 | 9.7 | 19.3 | 0.10 | 0.23 | 0.23 | 88 | 1020.5 |
| 20260506172521 | 5 | 70 | 12.9 | 19.3 | 0.08 | 0.20 | 0.20 | 88 | 1020.6 |
| 20260506172022 | 5 | 61 | 12.9 | 19.3 | 0.08 | 0.20 | 0.20 | 88 | 1020.5 |
| 20260506171535 | 5 | 44 | 11.3 | 19.3 | 0.10 | 0.20 | 0.20 | 88 | 1020.6 |
| 20260506171024 | 5 | 64 | 11.3 | 19.3 | 0.08 | 0.18 | 0.18 | 88 | 1020.6 |
| 20260506170521 | 5 | 62 | 11.3 | 19.3 | 0.08 | 0.18 | 0.18 | 88 | 1020.6 |
| 20260506170046 | 5 | 49 | 9.7 | 19.3 | 0.05 | 0.15 | 0.15 | 88 | 1020.6 |
| 20260506165521 | 5 | 65 | 9.7 | 19.3 | 0.05 | 0.15 | 0.15 | 88 | 1020.6 |
| 20260506165021 | 5 | 46 | 11.3 | 19.3 | 0.05 | 0.15 | 0.15 | 88 | 1020.4 |
| 20260506164542 | 5 | 59 | 12.9 | 20.9 | 0.03 | 0.13 | 0.13 | 88 | 1020.4 |
| 20260506164025 | 5 | 55 | 12.9 | 20.9 | 0.03 | 0.13 | 0.13 | 88 | 1020.3 |
| 20260506163523 | 5 | 58 | 11.3 | 19.3 | 0.03 | 0.13 | 0.13 | 88 | 1020.5 |
| 20260506163043 | 5 | 59 | 12.9 | 19.3 | 0.03 | 0.13 | 0.13 | 88 | 1020.3 |
| 20260506162524 | 5 | 39 | 11.3 | 17.7 | 0.03 | 0.13 | 0.13 | 88 | 1020.2 |
| 20260506162022 | 5 | 53 | 9.7 | 17.7 | 0.03 | 0.13 | 0.13 | 88 | 1020.2 |
| 20260506161536 | 5 | 37 | 11.3 | 17.7 | 0.03 | 0.10 | 0.10 | 88 | 1020.1 |
| 20260506161021 | 5 | 39 | 9.7 | 17.7 | 0.03 | 0.10 | 0.10 | 88 | 1020.1 |
| 20260506160521 | 5 | 59 | 12.9 | 17.7 | 0.03 | 0.10 | 0.10 | 88 | 1019.9 |
| 20260506160047 | 5 | 50 | 9.7 | 17.7 | 0.03 | 0.10 | 0.10 | 88 | 1020.1 |
| 20260506155520 | 5 | 49 | 12.9 | 17.7 | 0.03 | 0.10 | 0.10 | 88 | 1019.9 |
| 20260506155021 | 5 | 59 | 8.0 | 14.5 | 0.03 | 0.10 | 0.10 | 88 | 1019.8 |
| 20260506154552 | 5 | 75 | 8.0 | 16.1 | 0.03 | 0.10 | 0.10 | 88 | 1019.7 |